Weather History for KLBT - July, 2012

Change the Weather History Date:

Friday, July 6, 2012

  Actual Average Record
Temperature  
Mean Temperature 84 °F 81 °F  
Max Temperature 95 °F 91 °F 97 °F (2004)
Min Temperature 72 °F 71 °F 64 °F (2014)
Degree Days  
Heating Degree Days 0 0  
Month to date heating degree days 0 0  
Since 1 June heating degree days 0 0  
Since 1 July heating degree days 0 0  
Cooling Degree Days 19 16  
Month to date cooling degree days 119 96  
Year to date cooling degree days 845 734  
Since 1 June cooling degree days 439 484  
Growing Degree Days 33 (Base 50)    
Moisture  
Dew Point 73 °F    
Average Humidity 70    
Maximum Humidity 94    
Minimum Humidity 46    
Precipitation  
Precipitation 0.00 in 0.14 in 0.70 in (2008)
Month to date precipitation 0.48 0.84  
Year to date precipitation 22.58 20.25  
Sea Level Pressure  
Sea Level Pressure 29.93 in    
Wind  
Wind Speed 3 mph (SW)    
Max Wind Speed 9 mph    
Max Gust Speed 12 mph    
Visibility 9 miles    
Events      
T = Trace of Precipitation, MM = Missing Value Source: NWS Daily Summary

Daily Weather History Graph

Daily Weather History Graph

Search for Another Location

Airport or City:

Trip Planner

Search our weather history database for the weather conditions in past years. The results will help you decide how hot, cold, wet, or windy it might be!

Date:

Astronomy

Jul. 06, 2012 Rise Set
Actual Time 6:09 AM EDT 8:32 PM EDT
Civil Twilight 5:40 AM EDT 9:01 PM EDT
Nautical Twilight 5:04 AM EDT 9:37 PM EDT
Astronomical Twilight 4:25 AM EDT 10:16 PM EDT
Moon 10:31 PM EDT (7/6) 9:17 AM EDT (7/6)
Length of Visible Light 15h 21m
Length of Day
14h 22m
Waning Gibbous, 89% of the Moon is Illuminated
Jul 6
Waning Gibbous
Jul 10
Last Quarter
Jul 19
New
Jul 26
First Quarter
Aug 1
Full

Hourly Weather History & Observations

Time (EDT) Temp. Heat Index Dew Point Humidity Pressure Visibility Wind Dir Wind Speed Gust Speed Precip Events Conditions
12:54 AM 75.0 °F - 71.1 °F 87% 29.91 in 10.0 mi West 3.5 mph - N/A   Clear
1:54 AM 73.9 °F - 72.0 °F 93% 29.91 in 9.0 mi NNW 4.6 mph - N/A   Clear
2:54 AM 73.9 °F - 72.0 °F 93% 29.91 in 10.0 mi Calm Calm - N/A   Clear
3:54 AM 73.9 °F - 72.0 °F 93% 29.91 in 8.0 mi Calm Calm - N/A   Clear
4:54 AM 73.0 °F - 72.0 °F 96% 29.91 in 7.0 mi SSE 3.5 mph - N/A   Clear
5:54 AM 73.0 °F - 71.1 °F 93% 29.92 in 7.0 mi SSE 3.5 mph - N/A   Clear
6:54 AM 73.9 °F - 71.1 °F 91% 29.95 in 8.0 mi Calm Calm - N/A   Clear
7:54 AM 75.0 °F - 73.0 °F 94% 29.96 in 7.0 mi South 3.5 mph - N/A   Clear
8:54 AM 79.0 °F - 73.9 °F 84% 29.96 in 8.0 mi WSW 3.5 mph - N/A   Clear
9:54 AM 82.0 °F 87.9 °F 73.9 °F 76% 29.96 in 8.0 mi WSW 5.8 mph - N/A   Clear
10:54 AM 84.0 °F 91.2 °F 73.9 °F 72% 29.96 in 9.0 mi SW 3.5 mph - N/A   Clear
11:54 AM 87.1 °F 95.4 °F 73.9 °F 65% 29.96 in 10.0 mi Variable 3.5 mph - N/A   Clear
12:54 PM 89.1 °F 97.0 °F 73.0 °F 59% 29.96 in 10.0 mi WNW 6.9 mph - N/A   Clear
1:54 PM 91.0 °F 98.2 °F 72.0 °F 53% 29.95 in 10.0 mi SW 6.9 mph - N/A   Clear
2:54 PM 93.0 °F 97.9 °F 69.1 °F 45% 29.94 in 10.0 mi WSW 6.9 mph - N/A   Clear
3:54 PM 93.9 °F 102.1 °F 72.0 °F 49% 29.93 in 10.0 mi SW 5.8 mph - N/A   Clear
4:54 PM 93.9 °F 103.4 °F 73.0 °F 51% 29.91 in 10.0 mi SSW 8.1 mph - N/A   Clear
5:54 PM 93.9 °F 103.4 °F 73.0 °F 51% 29.90 in 10.0 mi South 4.6 mph - N/A   Clear
6:54 PM 93.0 °F 101.9 °F 73.0 °F 52% 29.92 in 10.0 mi Calm Calm - N/A   Clear
7:54 PM 87.1 °F 99.8 °F 78.1 °F 74% 29.91 in 10.0 mi Calm Calm - N/A   Clear
8:54 PM 84.9 °F 95.3 °F 77.0 °F 77% 29.93 in 10.0 mi Calm Calm - N/A   Clear
9:54 PM 82.0 °F 90.2 °F 77.0 °F 85% 29.94 in 10.0 mi Calm Calm - N/A   Clear
10:54 PM 82.9 °F 89.4 °F 73.9 °F 74% 29.96 in 10.0 mi SW 4.6 mph - N/A   Clear
11:54 PM 82.9 °F 88.8 °F 73.0 °F 72% 29.96 in 10.0 mi Calm Calm - N/A   Clear